Tracking 19709 objects as of 17-Jun-2019
HD Live streaming from Space Station
objects crossing your sky now

SL-14 DEB

Track SL-14 DEB now!
10-day predictions


NORAD ID: 29126
Int'l Code: 1985-108Q
Perigee: 440.3 km
Apogee: 448.8 km
Inclination: 82.6 °
Period: 93.3 minutes
Semi major axis: 6815 km
RCS: 0.074 m2 (small)
Launch date: November 22, 1985
Source: Commonwealth of Independent States (former USSR) (CIS)
Launch site: PLESETSK MISSILE AND SPACE COMPLEX (PKMTR)

Note: This is SATELLITE DEBRIS
aabbcc
Your satellite tracking list
Your tracking list is empty




NASA's NSSDC Master Catalog

Two Line Element Set (TLE):
1 29126U 85108Q   19167.81422321 +.00008548 +00000-0 +19337-3 0  9990
2 29126 082.5665 077.1991 0006236 060.2078 299.9789 15.42949224717198
Source of the keplerian elements: AFSPC